Temperature
26 23 22 23 24 24 24 23 23 23 23 21 20 20 20 19 19 18 18 18 18 18 18 18 18 18 18 18 18 18 18 18 18 18 17 17 16 16 16 15 15 15 15 14
23 23 25 26 26 26 25 23 23 23 23 22 20 20 20 19 19 18 18 18 18 18 17 17 18 18 18 18 18 18 18 18 18 17 17 17 16 16 15 15 15 15 14 14
24 25 27 27 27 26 24 23 23 22 22 21 20 20 20 19 19 19 19 19 18 18 18 18 18 18 18 18 19 19 18 18 18 17 17 16 16 15 15 15 15 14 14 14
25 27 27 26 26 26 23 24 24 23 20 19 20 18 19 19 19 19 19 19 19 18 18 18 18 18 19 19 19 19 18 18 18 17 17 16 16 16 15 15 14 14 14 14
25 26 26 26 26 26 24 24 22 21 19 18 18 18 18 19 18 19 19 19 19 19 19 19 19 19 19 19 19 19 18 18 18 17 17 16 16 16 15 15 14 14 14 14
25 25 25 26 27 26 24 22 20 18 17 18 18 18 18 18 19 19 19 20 20 20 20 20 20 20 19 19 19 19 18 18 18 17 17 16 16 16 15 15 15 14 14 14
24 25 25 25 25 25 23 20 19 19 17 18 19 19 18 20 20 20 20 20 20 20 20 20 20 20 20 19 19 19 19 18 18 17 17 17 16 16 15 15 15 14 14 14
23 23 24 25 25 24 23 21 20 20 19 18 19 19 19 21 22 22 22 22 21 21 21 21 21 20 20 20 20 19 19 19 18 18 17 17 17 16 16 15 15 14 14 14
22 23 26 26 26 25 24 22 21 19 19 18 18 19 20 22 22 22 22 22 22 22 22 21 21 21 21 21 20 20 20 19 19 18 18 17 17 16 16 16 15 15 14 14
22 23 25 26 25 25 24 23 19 19 19 19 19 19 19 21 21 21 21 22 22 22 22 22 22 22 21 21 21 20 20 20 19 19 18 18 17 17 16 16 15 15 15 14
23 22 23 23 24 24 24 23 20 18 18 18 18 19 20 20 21 20 21 23 23 23 23 23 22 22 22 21 21 21 20 20 19 19 19 18 18 17 17 17 16 15 15 14
23 20 21 23 23 24 23 23 20 20 19 18 18 19 22 21 21 22 22 23 24 24 24 24 23 23 22 22 21 21 21 20 20 19 19 19 18 18 17 17 17 16 15 15
23 20 20 21 21 22 23 23 21 18 17 17 18 20 22 21 22 23 23 24 24 24 24 24 23 23 23 22 22 22 21 21 20 20 19 19 18 18 18 17 17 16 16 15
22 20 20 21 21 21 22 23 22 20 18 19 19 21 22 22 22 22 24 25 25 25 25 24 24 23 23 23 22 22 22 21 21 20 20 19 19 18 18 18 17 17 16 16
21 21 22 22 23 23 23 24 24 22 21 20 21 21 21 21 21 23 25 25 25 25 25 24 24 24 23 23 22 22 22 21 21 20 20 20 19 19 18 18 17 17 17 16
20 21 22 22 23 23 23 24 24 23 22 21 21 21 21 21 23 23 24 25 24 25 25 25 24 24 23 23 23 22 22 22 21 21 21 20 19 19 19 18 18 17 17 16
19 20 21 20 22 22 21 22 22 21 20 20 19 19 19 20 21 22 24 24 24 24 25 24 24 24 24 23 23 23 22 22 21 21 21 20 20 19 19 18 18 17 17 17
19 18 17 19 20 21 21 21 21 20 18 18 18 19 19 19 20 21 23 23 24 24 24 24 24 24 24 23 23 23 23 22 21 21 21 20 20 19 19 18 18 18 17 17
17 18 17 17 19 20 21 21 20 19 17 17 17 18 19 20 20 19 20 22 23 23 23 23 24 23 23 23 23 23 22 22 21 21 21 20 20 19 19 18 18 18 17 17
17 16 17 17 19 19 20 20 20 19 17 17 17 17 18 19 17 16 18 20 21 22 22 22 22 22 22 22 22 22 21 21 21 21 21 20 20 19 19 18 18 17 17 16
17 16 16 17 17 18 19 19 19 19 17 17 17 18 18 17 16 17 18 19 19 20 20 20 20 20 20 20 21 20 20 20 20 20 19 19 19 18 18 18 17 17 16 16
17 16 16 16 16 17 18 18 18 17 17 18 18 19 18 17 17 17 17 18 18 18 18 19 19 18 18 19 19 19 18 18 18 18 18 18 17 17 17 17 16 16 16 15
16 16 15 15 16 16 17 17 18 19 18 18 19 19 18 17 17 17 17 17 17 17 17 17 17 17 17 17 17 17 16 17 17 17 16 16 16 16 16 15 15 15 15 15
17 16 15 15 15 16 17 18 18 19 19 19 18 18 18 17 16 16 16 16 16 16 16 16 16 16 16 15 15 15 15 15 15 15 15 14 14 14 14 14 14 14 14 14
17 16 14 14 15 16 16 18 18 18 18 18 18 18 17 17 16 16 16 16 15 15 15 15 15 14 14 14 14 13 13 13 13 13 13 13 13 13 13 13 13 12 12 12
17 16 15 15 15 14 16 18 18 18 18 18 17 16 16 16 16 16 15 15 15 14 14 14 13 13 13 13 12 12 12 12 12 12 12 11 11 11 11 11 12 12 12 12
Wind_Speed
3 0 7 12 10 10 6 3 2 2 2 4 3 3 2 4 4 5 6 8 8 8 9 10 10 11 10 10 9 8 8 7 6 4 4 3 3 3 2 3 6 7 7 8
4 8 17 14 9 5 2 2 1 1 1 3 3 1 1 3 5 7 9 9 9 8 8 9 9 9 10 10 10 9 8 7 6 4 4 3 3 2 3 3 4 6 6 6
8 10 10 6 2 2 1 3 4 4 2 4 3 2 1 2 3 5 8 9 9 13 13 12 10 9 9 10 11 11 9 8 7 6 3 3 4 3 3 2 2 3 5 5
6 6 4 3 3 2 2 4 5 5 4 2 2 1 5 3 3 5 7 9 11 12 12 12 12 11 12 12 11 10 10 9 7 7 6 5 4 3 3 3 3 2 3 4
5 4 3 3 2 2 3 2 4 5 4 3 3 1 6 2 5 7 9 10 12 13 14 15 15 14 13 13 11 10 10 9 8 7 8 7 5 4 3 3 3 1 1 3
6 4 3 4 2 4 7 5 6 5 5 4 2 1 5 5 7 7 10 12 13 14 14 15 14 12 12 11 11 10 10 9 9 9 8 8 8 6 5 3 2 1 1 1
7 7 4 1 0 2 5 5 5 6 6 3 3 1 8 9 7 10 13 14 15 15 14 14 13 13 12 13 13 11 12 10 9 9 9 9 9 8 6 5 4 2 1 1
2 8 4 2 5 3 2 8 5 3 3 3 2 4 8 9 7 10 12 13 14 15 15 16 16 15 14 14 14 13 13 11 10 10 9 8 9 6 5 5 5 4 4 4
5 6 5 3 2 4 1 2 5 6 2 1 4 5 8 4 4 8 11 12 14 16 16 17 16 14 14 14 14 14 14 11 11 11 9 9 9 8 7 6 5 4 4 4
7 4 5 1 4 2 4 4 5 5 4 2 4 4 5 7 7 8 11 14 15 15 15 15 14 14 14 14 13 13 13 13 11 11 10 9 9 9 8 7 6 6 5 5
3 4 3 3 1 2 1 2 4 3 5 6 4 7 9 12 11 12 14 15 15 15 16 15 14 13 13 12 12 12 12 11 10 10 9 9 9 9 8 7 8 7 6 6
2 4 1 3 4 2 3 4 5 3 3 5 5 8 9 12 12 12 14 14 14 14 14 13 13 12 12 13 13 13 13 12 12 11 10 10 9 9 8 8 8 8 8 7
3 5 3 6 7 5 1 2 4 5 4 5 5 7 5 6 8 10 11 12 12 12 12 11 12 13 13 13 13 13 13 13 12 11 11 10 9 9 9 9 9 8 8 8
5 4 6 6 8 6 4 5 2 4 3 4 7 8 6 5 7 7 8 10 11 12 12 12 13 13 13 13 13 13 13 12 12 11 11 11 11 11 10 10 9 9 9 8
5 3 3 5 6 4 5 6 5 3 5 6 8 7 8 7 8 7 7 7 9 11 12 14 14 13 12 12 12 12 12 12 12 12 12 12 11 10 10 9 9 9 9 10
3 3 1 3 4 4 5 6 5 4 3 4 2 3 5 2 2 3 5 7 9 11 13 14 14 13 13 14 14 13 12 12 12 13 14 12 11 10 11 10 10 9 9 9
2 3 1 4 5 4 4 4 1 4 5 1 2 3 2 4 3 2 3 5 7 8 8 10 11 13 15 15 15 16 15 12 12 13 13 12 12 12 12 11 10 10 10 9
5 3 3 2 2 3 7 1 6 10 8 8 4 4 4 5 4 6 5 2 2 3 5 7 8 9 10 10 12 13 12 12 13 13 13 12 12 12 11 11 11 11 9 8
4 5 3 3 3 5 2 1 2 6 4 5 4 6 6 7 10 11 12 8 6 5 3 1 3 4 4 6 8 9 9 9 11 12 13 13 13 12 11 12 12 10 8 9
4 4 5 3 3 5 5 4 0 7 2 4 2 5 5 7 5 4 8 9 11 10 8 7 5 5 4 3 2 4 5 6 9 12 12 10 11 12 12 13 11 9 8 10
3 3 2 3 3 5 4 4 3 3 6 5 2 2 3 3 4 2 3 8 10 10 10 10 10 10 8 7 4 2 1 4 7 6 5 6 8 10 10 10 8 8 8 8
4 3 2 3 2 5 3 3 1 5 3 5 4 3 6 6 5 5 6 8 9 10 10 10 10 10 9 10 9 8 7 6 5 4 3 4 5 7 7 8 8 8 8 9
5 6 5 6 6 4 2 4 3 4 4 4 5 6 9 8 7 7 8 8 8 9 9 9 10 10 11 10 10 10 9 8 7 6 5 5 5 5 5 6 7 7 7 8
3 3 4 2 3 3 2 2 3 4 4 4 6 8 10 10 9 8 8 7 8 8 8 8 10 11 10 10 11 9 8 8 9 8 8 7 6 6 6 4 5 6 7 8
6 5 4 2 3 2 1 3 4 4 6 10 11 10 10 11 9 8 7 6 6 7 7 8 9 9 9 9 9 9 9 10 9 8 7 7 6 6 7 6 6 7 8 10
4 7 9 8 10 7 6 4 6 8 9 11 13 11 9 9 9 8 6 5 5 6 6 7 8 7 7 7 8 8 8 8 8 7 7 6 6 6 7 7 9 11 13 16
Wind_Direction
274 112 259 257 240 223 217 205 224 229 178 116 147 183 207 168 155 168 164 164 174 176 164 157 155 148 142 141 144 149 146 149 136 124 120 119 127 138 148 153 137 122 104 91
330 270 256 257 261 243 213 191 216 346 114 124 149 232 232 169 185 181 173 172 174 163 157 160 158 153 155 159 159 161 163 162 156 151 153 157 151 153 155 151 144 139 126 118
231 258 279 286 300 12 338 194 187 176 101 61 100 359 285 228 179 175 180 176 176 170 167 166 166 169 169 172 174 174 176 172 169 158 130 98 77 69 75 106 156 173 159 146
257 272 330 340 358 45 290 215 162 135 108 11 57 316 282 226 214 196 190 180 182 175 172 174 174 180 187 188 185 180 180 178 174 159 146 143 141 143 168 172 185 207 190 176
273 304 329 302 260 139 188 91 79 94 112 66 19 83 291 202 218 218 198 187 184 180 179 182 185 191 194 192 189 187 182 181 177 166 156 144 141 152 153 140 153 211 260 217
261 279 252 244 265 149 138 81 52 56 70 37 300 148 276 230 212 202 194 191 188 187 188 190 194 194 197 194 191 185 180 184 180 170 163 157 156 158 153 158 177 238 285 239
318 303 282 225 311 96 123 91 20 360 19 294 280 221 251 246 219 189 188 191 190 190 190 194 197 198 198 194 193 186 180 185 181 173 171 168 167 167 172 185 193 191 192 186
304 293 271 199 183 185 186 137 155 207 210 276 309 264 263 268 223 185 181 185 187 190 193 198 200 199 197 194 190 184 183 185 182 178 178 174 170 167 173 181 179 185 194 203
184 261 285 233 194 142 124 164 171 139 107 64 283 284 300 285 169 174 178 183 191 195 197 199 200 197 194 190 187 185 182 183 184 182 178 178 177 175 178 180 177 184 197 197
169 230 299 340 62 357 164 156 86 100 141 199 275 271 246 240 213 195 192 194 199 197 198 200 197 194 192 188 185 181 180 182 183 182 181 185 186 186 184 182 191 197 205 200
167 173 310 16 124 237 10 79 101 119 155 153 215 258 225 215 209 202 204 205 204 200 198 197 195 191 184 180 177 178 179 177 180 183 184 181 188 191 189 193 204 207 211 212
183 126 186 273 279 256 168 183 144 149 234 169 182 257 248 208 211 204 208 209 208 204 198 192 187 180 177 178 179 180 182 183 186 184 181 184 188 189 193 202 211 211 215 218
118 107 66 340 333 343 326 227 164 150 151 168 179 253 266 213 214 211 207 208 203 196 190 182 177 179 181 182 183 185 187 188 186 181 182 188 191 193 199 207 210 210 213 218
123 124 158 202 234 238 257 268 224 147 173 219 224 239 265 235 212 211 203 199 190 184 180 177 180 184 185 186 187 188 192 189 184 183 187 194 199 200 205 209 211 213 213 214
110 149 197 224 235 220 247 276 285 255 215 207 244 231 238 233 211 204 191 176 169 174 176 179 183 188 190 191 193 193 195 192 187 187 195 204 205 203 205 208 212 214 215 218
89 165 210 300 272 283 291 288 289 308 306 246 210 250 278 263 120 134 158 160 165 175 183 187 189 190 192 195 197 197 200 199 191 194 204 206 201 203 206 209 210 213 218 220
127 146 143 270 292 358 297 264 230 66 17 49 120 259 13 48 59 138 166 161 174 176 182 188 194 196 197 197 194 197 202 197 195 202 206 202 200 205 209 209 208 213 217 218
145 132 148 228 19 249 251 274 110 93 50 32 47 18 48 82 62 41 25 91 123 164 183 196 203 208 210 207 205 203 196 192 198 204 207 204 201 207 207 205 211 216 214 214
136 140 140 148 203 258 277 287 149 118 56 356 36 46 44 52 51 30 14 31 57 56 52 167 204 209 213 216 215 205 205 204 206 211 211 208 204 206 205 209 216 214 211 217
58 103 133 142 172 233 256 302 32 104 91 287 32 64 52 51 57 352 347 22 37 41 42 41 45 49 24 306 218 183 213 213 222 225 222 215 207 207 211 215 217 213 211 220
3 29 117 160 203 252 285 322 41 138 212 220 190 101 79 84 142 175 10 41 42 40 40 44 49 47 27 13 52 66 4 275 263 259 241 226 219 219 221 219 217 214 214 219
177 159 173 146 173 250 317 18 154 211 192 185 187 153 116 113 114 100 67 54 44 42 38 40 48 41 27 31 46 42 15 340 349 349 299 263 247 241 235 225 226 220 213 219
195 189 180 182 204 222 194 198 205 171 176 203 179 156 135 124 109 93 75 62 52 48 43 41 47 41 31 31 43 40 12 8 16 18 1 334 315 290 268 243 238 234 223 226
244 145 131 178 236 219 204 195 168 177 171 147 127 123 122 115 106 92 78 66 56 47 44 43 46 43 32 29 36 33 19 21 29 22 6 354 342 326 312 289 262 249 241 240
216 163 139 167 192 148 228 191 155 124 110 102 96 97 104 103 97 91 80 68 60 49 41 44 47 46 36 33 31 21 20 26 25 13 1 350 343 328 317 304 284 270 257 251
204 177 175 197 191 168 186 185 135 117 109 105 99 87 83 92 91 83 74 65 62 54 48 48 47 47 39 36 25 11 12 23 21 2 346 335 327 321 314 309 306 287 275 272
Height
1515 1520 1523 1515 1512 1513 1513 1518 1520 1517 1511 1516 1520 1520 1519 1519 1520 1521 1522 1523 1525 1527 1529 1531 1535 1537 1540 1542 1544 1546 1549 1551 1551 1552 1553 1554 1553 1553 1553 1552 1552 1551 1549 1548
1520 1521 1507 1503 1503 1505 1510 1517 1519 1516 1511 1515 1520 1520 1518 1518 1518 1519 1521 1523 1525 1528 1529 1532 1535 1536 1540 1542 1544 1546 1549 1550 1551 1552 1553 1553 1553 1552 1552 1551 1551 1550 1549 1548
1520 1510 1499 1500 1504 1507 1511 1515 1515 1517 1515 1516 1520 1525 1520 1517 1518 1519 1520 1522 1524 1526 1529 1531 1534 1536 1539 1541 1543 1545 1547 1549 1550 1551 1551 1552 1552 1551 1551 1551 1550 1550 1549 1548
1510 1502 1499 1502 1505 1505 1515 1506 1506 1511 1523 1531 1527 1540 1525 1518 1518 1518 1519 1520 1523 1525 1527 1529 1532 1535 1537 1539 1542 1544 1546 1547 1549 1549 1550 1550 1550 1550 1550 1549 1549 1549 1548 1548
1509 1502 1502 1504 1502 1502 1509 1505 1508 1514 1525 1534 1532 1538 1532 1520 1521 1517 1517 1519 1521 1523 1525 1528 1530 1532 1535 1538 1540 1542 1544 1546 1547 1548 1548 1548 1548 1548 1548 1548 1547 1547 1547 1547
1503 1499 1499 1498 1496 1497 1503 1510 1516 1524 1531 1545 1538 1539 1535 1522 1516 1513 1514 1516 1518 1521 1523 1526 1528 1531 1533 1536 1538 1541 1542 1544 1545 1546 1546 1546 1546 1546 1546 1546 1545 1545 1545 1545
1509 1501 1495 1495 1499 1500 1505 1522 1540 1543 1552 1549 1534 1534 1530 1509 1505 1506 1509 1512 1515 1518 1521 1524 1526 1529 1531 1533 1536 1538 1540 1541 1542 1543 1543 1543 1543 1543 1543 1543 1543 1543 1543 1543
1522 1518 1498 1494 1497 1503 1504 1516 1539 1549 1553 1547 1534 1534 1518 1501 1499 1501 1504 1508 1512 1515 1518 1520 1522 1525 1528 1530 1532 1535 1536 1538 1539 1540 1540 1541 1541 1541 1541 1541 1541 1541 1542 1542
1521 1516 1494 1492 1491 1495 1503 1511 1513 1532 1540 1548 1540 1527 1511 1498 1499 1500 1503 1506 1508 1511 1514 1516 1519 1522 1524 1526 1529 1531 1533 1535 1536 1537 1537 1538 1538 1539 1539 1539 1539 1539 1539 1540
1506 1514 1499 1492 1492 1493 1496 1502 1516 1530 1546 1552 1542 1533 1524 1506 1502 1500 1501 1502 1504 1507 1509 1512 1515 1517 1520 1523 1525 1528 1530 1531 1533 1534 1534 1535 1536 1536 1537 1537 1537 1537 1537 1537
1497 1510 1506 1499 1501 1502 1499 1503 1512 1525 1531 1546 1550 1534 1500 1497 1495 1496 1496 1497 1499 1502 1504 1507 1510 1513 1517 1520 1522 1524 1526 1528 1529 1531 1532 1532 1533 1534 1534 1534 1534 1534 1534 1534
1494 1507 1514 1505 1496 1493 1495 1500 1509 1525 1528 1530 1537 1525 1484 1485 1486 1489 1490 1492 1495 1497 1500 1503 1507 1510 1513 1516 1518 1520 1522 1524 1526 1527 1529 1529 1530 1531 1531 1531 1531 1531 1531 1531
1492 1508 1522 1520 1513 1500 1498 1497 1501 1511 1522 1528 1532 1516 1481 1482 1483 1484 1486 1487 1490 1494 1497 1500 1504 1507 1509 1512 1514 1517 1518 1520 1523 1524 1525 1526 1527 1527 1527 1528 1528 1528 1527 1527
1487 1503 1515 1522 1516 1503 1501 1495 1495 1505 1519 1519 1513 1502 1486 1483 1481 1481 1482 1484 1486 1490 1493 1496 1500 1503 1506 1508 1511 1513 1515 1517 1519 1520 1521 1522 1523 1523 1524 1524 1524 1524 1523 1523
1486 1499 1497 1497 1493 1493 1493 1491 1489 1494 1499 1506 1500 1495 1487 1481 1479 1478 1479 1481 1484 1487 1490 1493 1496 1499 1502 1505 1507 1509 1511 1513 1514 1516 1516 1517 1518 1519 1520 1520 1519 1519 1519 1518
1487 1494 1494 1496 1489 1490 1491 1487 1486 1487 1489 1490 1489 1491 1481 1478 1477 1478 1479 1481 1483 1485 1488 1491 1494 1496 1498 1501 1502 1504 1506 1508 1509 1510 1511 1512 1513 1514 1514 1514 1515 1514 1514 1514
1490 1495 1501 1504 1493 1494 1501 1491 1488 1492 1491 1491 1496 1493 1483 1482 1481 1481 1481 1482 1483 1484 1487 1489 1491 1493 1495 1496 1498 1499 1501 1503 1504 1505 1506 1507 1507 1508 1508 1509 1509 1509 1508 1508
1488 1495 1503 1506 1503 1511 1498 1484 1484 1491 1494 1491 1490 1488 1485 1485 1484 1484 1484 1484 1484 1485 1486 1487 1489 1490 1492 1493 1494 1495 1496 1497 1498 1499 1500 1501 1501 1502 1502 1503 1503 1503 1503 1502
1482 1492 1502 1510 1511 1503 1491 1486 1486 1491 1499 1495 1491 1488 1486 1484 1483 1486 1488 1487 1485 1485 1486 1486 1487 1488 1488 1489 1490 1491 1492 1492 1493 1493 1493 1494 1495 1495 1496 1496 1496 1497 1497 1496
1485 1488 1499 1506 1509 1510 1495 1484 1482 1488 1501 1495 1491 1487 1486 1486 1493 1496 1492 1489 1487 1486 1485 1485 1485 1485 1486 1486 1486 1487 1488 1488 1488 1488 1488 1489 1489 1489 1489 1490 1490 1491 1490 1490
1494 1497 1500 1505 1507 1499 1488 1484 1484 1499 1499 1491 1489 1487 1487 1489 1493 1495 1493 1490 1489 1487 1487 1486 1485 1484 1484 1484 1484 1484 1484 1484 1484 1484 1483 1484 1484 1484 1484 1484 1484 1484 1484 1483
1495 1500 1501 1503 1507 1502 1484 1484 1489 1491 1487 1487 1487 1487 1488 1491 1492 1493 1492 1490 1490 1489 1488 1488 1486 1485 1484 1483 1482 1482 1482 1481 1481 1480 1479 1479 1479 1479 1478 1478 1477 1477 1476 1475
1487 1487 1489 1492 1493 1484 1480 1482 1484 1485 1485 1485 1485 1487 1489 1492 1493 1493 1493 1492 1492 1491 1490 1489 1488 1486 1485 1484 1483 1482 1481 1480 1478 1476 1475 1474 1474 1473 1473 1471 1470 1470 1469 1468
1480 1478 1483 1486 1484 1481 1481 1483 1483 1485 1485 1486 1487 1488 1490 1491 1493 1493 1493 1493 1493 1492 1491 1490 1488 1487 1485 1484 1483 1482 1480 1478 1476 1474 1472 1470 1469 1468 1467 1465 1464 1462 1461 1459
1473 1476 1481 1484 1482 1481 1481 1482 1483 1486 1487 1487 1489 1491 1492 1492 1493 1494 1494 1494 1494 1493 1492 1490 1489 1487 1486 1485 1483 1481 1479 1476 1474 1472 1470 1468 1465 1463 1461 1459 1457 1455 1453 1452
1467 1470 1474 1475 1473 1475 1479 1481 1484 1486 1488 1488 1490 1492 1494 1494 1495 1495 1495 1495 1495 1494 1492 1491 1489 1488 1486 1484 1482 1480 1477 1475 1472 1469 1467 1464 1461 1458 1455 1452 1449 1447 1445 1442